Location: Praha
(50.0830°N, 14.4670°E)
Time: 14:09:28
(UTC+01:00)

X-37B - Pass Details

Date: 10 October 2023
Orbit: 277 x 277 km, 45.0° (Epoch: 01 November)

Event Time Altitude Azimuth Distance (km) Brightness Sun altitude
Rises 19:32:45 0° 228° (SW) 1,909 4.8 -12.2°
Reaches altitude 10° 19:35:05 10° 204° (SSW) 1,099 3.1 -12.5°
Maximum altitude 19:36:41 16° 163° (SSE) 850 2.1 -12.8°
Enters shadow 19:36:58 15° 154° (SSE) 859 2.0 -12.8°
